Flag Weather past 2 weeks in Erlangen, Bavaria, Germany

Now
37 °F

Overcast.


Feels Like: 34 °F
Forecast: 31 / 42 °F
Wind: 5 mph from East

Location: Nuernberg

Current Time: Nov 27, 2014 at 8:22:48 AM

Latest Report: Nov 27, 2014 at 7:50 AM


Visibility: N/A

Pressure: 29.89 "Hg

Humidity: 81%

Dew point: 32 °F

Location of ErlangenLocation

Historic Weather in Erlangen — Graph

°F

Erlangen temperature yesterday

Maximum temperature yesterday: 41 °F (at 2:20 PM)
Minimum temperature yesterday: 28 °F (at 2:20 AM)
Average temperature yesterday: 35 °F

Past Weeks' High & Low Weather Summary

 TemperatureHumidityPressure
High54 °F (Nov 14, 12:20 PM)100% (Nov 12, 7:20 AM)30.30 "Hg (Nov 12, 7:20 AM)
Low28 °F (Nov 26, 2:20 AM)66% (Nov 21, 10:50 AM)29.47 "Hg (Nov 16, 1:20 AM)
Average42 °F93%29.97 "Hg
* Reported Nov 12 7:20 AM — Nov 27 7:20 AM, Erlangen, Weather by CustomWeather, © 2014

Note: Actual official high and low records may vary slightly from our data, if they occured in-between our weather recording intervals... More about our weather records

Advertising

Erlangen weather history for previous 24 hours

 ConditionsComfort  
Time TempWeatherWind HumidityBarometerVisibility
7:20 AM
Nov 27
37 °FPassing clouds.5 mph81%29.89 "HgN/A
6:50 AM36 °FPassing clouds.7 mph87%29.89 "HgN/A
6:20 AM37 °FPassing clouds.6 mph81%29.89 "HgN/A
5:50 AM36 °FPassing clouds.6 mph87%29.89 "HgN/A
5:20 AM36 °FOvercast.5 mph87%29.89 "HgN/A
4:50 AM36 °FOvercast.6 mph87%29.89 "HgN/A
4:20 AM36 °FOvercast.7 mph87%29.89 "HgN/A
3:50 AM37 °FOvercast.7 mph81%29.92 "HgN/A
3:20 AM37 °FOvercast.8 mph81%29.92 "HgN/A
2:50 AM37 °FOvercast.7 mph81%29.92 "HgN/A
2:20 AM37 °FOvercast.7 mph81%29.95 "HgN/A
1:50 AM37 °FOvercast.8 mph81%29.95 "HgN/A
1:20 AM37 °FOvercast.7 mph81%29.95 "HgN/A
12:50 AM37 °FOvercast.8 mph81%29.95 "HgN/A
12:20 AM37 °FOvercast.7 mph81%29.95 "HgN/A
11:50 PM
Nov 26
37 °FOvercast.7 mph81%29.98 "HgN/A
11:20 PM37 °FPassing clouds.8 mph81%29.98 "HgN/A
10:50 PM37 °FPassing clouds.8 mph81%29.98 "HgN/A
10:20 PM37 °FPassing clouds.7 mph81%29.98 "HgN/A
9:50 PM37 °FPassing clouds.8 mph81%29.98 "HgN/A
9:20 PM37 °FPassing clouds.8 mph81%30.01 "HgN/A
8:50 PM37 °FPassing clouds.7 mph81%30.01 "HgN/A
8:20 PM37 °FPassing clouds.7 mph81%30.01 "HgN/A
7:50 PM37 °FPassing clouds.7 mph81%30.01 "HgN/A
7:20 PM37 °FPassing clouds.8 mph81%30.01 "HgN/A
6:50 PM37 °FPassing clouds.8 mph81%30.01 "HgN/A
6:20 PM37 °FPassing clouds.7 mph81%30.01 "HgN/A
5:50 PM37 °FPassing clouds.7 mph81%30.01 "HgN/A
5:20 PM39 °FPassing clouds.7 mph75%30.01 "HgN/A
4:50 PM39 °FPartly cloudy.6 mph75%30.01 "HgN/A
4:20 PM39 °FPassing clouds.5 mph81%30.01 "HgN/A
3:50 PM39 °FPassing clouds.6 mph81%30.01 "HgN/A
3:20 PM39 °FSunny.7 mph81%30.01 "Hg10 mi
2:50 PM39 °FPassing clouds.7 mph75%30.01 "HgN/A
2:20 PM41 °FScattered clouds.8 mph70%30.04 "HgN/A
1:50 PM39 °FScattered clouds.8 mph75%30.04 "HgN/A
1:20 PM39 °FPartly sunny.8 mph75%30.04 "HgN/A
12:50 PM39 °FPartly sunny.10 mph75%30.04 "HgN/A
12:20 PM39 °FScattered clouds.10 mph75%30.07 "HgN/A
11:50 AM39 °FPassing clouds.9 mph81%30.07 "HgN/A
11:20 AM37 °FPassing clouds.7 mph87%30.07 "HgN/A
10:20 AM36 °FSunny.6 mph93%30.09 "Hg10 mi
9:50 AM34 °FPassing clouds.5 mph93%30.09 "HgN/A
9:20 AM32 °FPassing clouds.6 mph100%30.09 "HgN/A
8:50 AM32 °FPassing clouds.6 mph100%30.09 "HgN/A
8:20 AM30 °FFog.5 mph100%30.09 "HgN/A
Weather by CustomWeather, © 2014

See weather overviewHow to use our weather pages